This demonstration page uses our WeatherBlox Daily Observations layout. Learn more.

Left ArrowRight Arrow

Hourly Observations for January 31, 2017

Temp ( °F °C ) Dew Point ( °F °C ) Humidity (%) Winds ( mph kmh ) Pressure ( in mb ) Visibility ( mi km ) Precip ( " mm )
12:53 am 00:53 Clear 34 1.1 24 -4.4 67 67 NW 9 15 29.98 1015 10 16 0.00 0.00
1:53 am 01:53 Clear 35 1.7 25 -3.9 67 67 NW 7 11 29.99 1016 10 16 0.00 0.00
2:53 am 02:53 Clear 33 0.6 23 -5 66 66 NNW 6 9 29.99 1016 10 16 0.00 0.00
3:53 am 03:53 Clear 31 -0.6 24 -4.4 76 76 NW 7 11 30.01 1016 10 16 0.00 0.00
4:53 am 04:53 Clear 33 0.6 24 -4.4 70 70 NNW 8 13 30.00 1016 10 16 0.00 0.00
5:53 am 05:53 Clear 33 0.6 26 -3.3 75 75 NW 7 11 30.03 1017 10 16 0.00 0.00
6:53 am 06:53 Mostly Clear 33 0.6 26 -3.3 75 75 undefined N/A 30.04 1017 10 16 0.00 0.00
7:53 am 07:53 Cloudy 33 0.6 26 -3.3 75 75 WNW 5 7 30.03 1017 10 16 0.00 0.00
8:53 am 08:53 Cloudy 34 1.1 27 -2.8 76 76 WNW 7 11 30.07 1018 10 16 0.00 0.00
9:53 am 09:53 Cloudy 37 2.8 27 -2.8 67 67 NW 5 7 30.06 1018 10 16 0.00 0.00
10:53 am 10:53 Cloudy 41 5 27 -2.8 57 57 N 8 13 30.06 1018 10 16 0.00 0.00
11:53 am 11:53 Sunny 44 6.7 26 -3.3 49 49 N 9 15 30.04 1017 10 16 0.00 0.00
12:53 pm 12:53 Sunny 45 7.2 25 -3.9 46 46 NNE 9 15 30.02 1017 10 16 0.00 0.00
1:53 pm 13:53 Partly Cloudy 44 6.7 25 -3.9 47 47 E 5 7 29.98 1015 10 16 0.00 0.00
2:53 pm 14:53 Mostly Cloudy 45 7.2 24 -4.4 44 44 NE 7 11 29.98 1015 10 16 0.00 0.00
3:53 pm 15:53 Sunny 45 7.2 25 -3.9 46 46 ENE 9 15 29.98 1015 10 16 0.00 0.00
4:53 pm 16:53 Sunny 42 5.6 26 -3.3 53 53 ENE 9 15 29.99 1016 10 16 0.00 0.00
5:53 pm 17:53 Clear 39 3.9 27 -2.8 62 62 ENE 9 15 30.00 1016 10 16 0.00 0.00
6:53 pm 18:53 Clear 37 2.8 27 -2.8 67 67 NE 8 13 30.05 1018 10 16 0.00 0.00
7:53 pm 19:53 Clear 35 1.7 26 -3.3 70 70 NE 12 19 30.08 1019 10 16 0.00 0.00
8:53 pm 20:53 Clear 34 1.1 26 -3.3 73 73 ENE 8 13 30.08 1019 10 16 0.00 0.00
9:53 pm 21:53 Clear 33 0.6 26 -3.3 75 75 NE 10 17 30.10 1019 10 16 0.00 0.00
10:53 pm 22:53 Clear 33 0.6 27 -2.8 78 78 NE 10 17 30.12 1020 10 16 0.00 0.00
11:53 pm 23:53 Clear 32 0 27 -2.8 82 82 NE 14 22 30.13 1020 10 16 0.00 0.00

Powered by AerisWeather